Powrót do katalogu

STARLINK-30094

AktywnyŁącznośćVLEO
NORAD 56305·PAYLOAD·🇺🇸 United States

Wystrzelony Apr 19, 2023 z Cape Canaveral Space Force Station

Loading…

Następne Przeloty (najbliższe 24 godziny)

TLE

ŚwieżeSource: CelesTrak SupGP

Epoka: Sep 15, 2026, 03:06 UTC

1 56305C 23056V   26258.12965278 -.00044828  00000+0 -16240-2 0  2588
2 56305  42.9998 218.8406 0000817 267.0935  99.0025 15.27595243    18

Śledź STARLINK-30094 w czasie rzeczywistym z AllMySat

Download on the App Store